DW7918 Weather Reports


Display with metric or nautical units.
time (UTC)temp
F
wind
direction
speed
MPH
gust
MPH
rain 1hr
in
rain 24hr
in
rain mn
in
humidity
%
barometer
mb
20260505055803 58 310 6.0 10.0 0.00 0.33 0.00 65 1001.2
20260505055603 58 310 6.0 10.0 0.00 0.33 0.00 65 1001.2
20260505055403 58 309 6.0 10.0 0.00 0.33 0.00 65 1001.2
20260505055203 57 306 6.0 10.0 0.00 0.33 0.00 65 1001.1
20260505055003 57 305 6.0 10.0 0.00 0.33 0.00 66 1001.2
20260505054824 57 304 6.0 10.0 0.00 0.33 0.00 65 1001.2
20260505054603 57 304 5.0 10.0 0.00 0.33 0.00 66 1001.2
20260505054403 57 302 5.0 10.0 0.00 0.33 0.00 66 1001.2
20260505054203 57 304 4.0 7.0 0.00 0.33 0.00 66 1001.3
20260505054024 57 303 4.0 7.0 0.00 0.33 0.00 66 1001.2
20260505053803 57 301 4.0 8.0 0.00 0.33 0.00 66 1001.0
20260505053603 57 301 4.0 8.0 0.00 0.33 0.00 66 1001.0
20260505053403 57 302 4.0 8.0 0.00 0.33 0.00 66 1001.0
20260505053224 57 304 4.0 8.0 0.00 0.33 0.00 65 1001.0
20260505053003 58 305 4.0 8.0 0.00 0.33 0.00 65 1001.0
20260505052803 58 307 4.0 8.0 0.00 0.33 0.00 65 1001.1
20260505052624 58 308 4.0 8.0 0.00 0.33 0.00 65 1000.9
20260505052403 58 306 5.0 8.0 0.00 0.33 0.00 64 1001.0
20260505052203 58 303 5.0 9.0 0.00 0.33 0.00 64 1000.9
20260505052003 58 303 5.0 10.0 0.00 0.33 0.00 64 1000.9
20260505051803 58 301 5.0 10.0 0.00 0.33 0.00 64 1000.9
20260505051624 58 300 6.0 10.0 0.00 0.33 0.00 64 1000.9
20260505051403 58 301 6.0 11.0 0.00 0.33 0.00 64 1000.8
20260505051203 58 301 6.0 11.0 0.00 0.33 0.00 63 1000.8
20260505051003 58 302 6.0 11.0 0.00 0.33 0.00 63 1000.7
20260505050824 58 303 6.0 11.0 0.00 0.33 0.00 63 1000.8
20260505050603 58 303 6.0 11.0 0.00 0.33 0.00 63 1001.1
20260505050403 58 302 6.0 10.0 0.00 0.33 0.00 63 1000.8
20260505050203 59 302 6.0 11.0 0.00 0.33 0.00 63 1001.1
20260505041603 58 304 4.0 7.0 0.00 0.33 0.00 63 1000.6
20260505041424 58 307 4.0 7.0 0.00 0.33 0.00 64 1000.6
20260505041203 58 309 4.0 6.0 0.00 0.33 0.00 64 1000.7
20260505041003 58 311 4.0 6.0 0.01 0.33 0.00 63 1000.6
20260505040824 59 311 4.0 6.0 0.01 0.33 0.00 63 1000.6
20260505040603 59 308 4.0 7.0 0.01 0.33 0.00 63 1000.5
20260505040403 59 306 4.0 7.0 0.01 0.33 0.00 63 1000.5
20260505040224 59 305 4.0 7.0 0.01 0.33 0.00 63 1000.6
20260505040004 59 302 4.0 7.0 0.01 0.33 0.00 63 1000.5
20260505035803 59 302 5.0 9.0 0.01 0.33 0.33 63 1000.3
20260505035603 59 303 5.0 9.0 0.01 0.33 0.33 63 1000.5
20260505035403 59 302 5.0 9.0 0.01 0.33 0.33 63 1000.2
20260505035203 59 301 5.0 9.0 0.01 0.33 0.33 64 1000.2
20260505035003 59 300 5.0 9.0 0.01 0.33 0.33 64 1000.4
20260505034803 58 299 4.0 9.0 0.01 0.33 0.33 64 1000.4
20260505034603 58 298 3.0 9.0 0.01 0.33 0.33 64 1000.2
20260505034403 58 297 3.0 7.0 0.02 0.33 0.33 65 1000.3
20260505034203 58 298 2.0 7.0 0.02 0.33 0.33 66 1000.4
20260505034003 58 298 2.0 7.0 0.03 0.33 0.33 66 1000.5
20260505033803 58 298 2.0 6.0 0.04 0.33 0.33 66 1000.7
20260505033603 58 298 2.0 3.0 0.05 0.33 0.33 66 1000.6
20260505033403 58 299 1.0 3.0 0.06 0.33 0.33 66 1000.6
20260505033203 58 299 1.0 3.0 0.07 0.33 0.33 66 1000.7
20260505033003 58 300 1.0 3.0 0.08 0.33 0.33 66 1000.6
20260505032803 58 301 1.0 3.0 0.09 0.33 0.33 66 1000.5
20260505032603 58 301 1.0 3.0 0.10 0.33 0.33 66 1000.3
20260505032403 58 300 1.0 3.0 0.11 0.33 0.33 66 1000.4
20260505032224 58 298 1.0 4.0 0.12 0.33 0.33 66 1000.4
20260505032003 58 296 0.0 4.0 0.13 0.33 0.33 66 1000.4
20260505031824 58 296 0.0 4.0 0.15 0.33 0.33 66 1000.5
20260505031603 58 294 0.0 4.0 0.15 0.33 0.33 66 1000.5
20260505031403 58 301 1.0 4.0 0.17 0.33 0.33 66 1000.5
20260505031203 58 296 1.0 4.0 0.17 0.33 0.33 66 1000.6
20260505031003 59 297 1.0 4.0 0.18 0.32 0.32 66 1000.7
20260505030824 59 294 1.0 4.0 0.18 0.32 0.32 66 1000.9
20260505030603 59 296 1.0 4.0 0.18 0.32 0.32 66 1000.9
20260505030403 59 288 1.0 4.0 0.18 0.32 0.32 66 1001.0
20260505030203 59 291 1.0 7.0 0.18 0.32 0.32 66 1001.0
20260505030003 59 288 2.0 7.0 0.18 0.32 0.32 66 1000.9
20260505025824 59 289 2.0 7.0 0.18 0.32 0.32 65 1000.9
20260505025603 59 291 3.0 7.0 0.19 0.32 0.32 65 1000.9
20260505025403 59 290 3.0 7.0 0.19 0.32 0.32 65 1001.0
20260505025203 59 290 3.0 7.0 0.19 0.32 0.32 65 1001.0
20260505025003 59 291 4.0 8.0 0.19 0.32 0.32 66 1001.0
20260505024803 59 291 3.0 8.0 0.19 0.32 0.32 66 1001.0
20260505024603 59 290 3.0 8.0 0.19 0.32 0.32 66 1000.9
20260505024403 59 289 3.0 8.0 0.18 0.31 0.31 66 1001.0
20260505024203 60 280 2.0 8.0 0.18 0.31 0.31 66 1001.2
20260505024003 60 277 1.0 7.0 0.17 0.30 0.30 66 1000.6
20260505023803 60 287 2.0 7.0 0.16 0.29 0.29 66 1000.2
20260505023603 60 295 3.0 9.0 0.15 0.28 0.28 65 1000.4
20260505023403 60 302 3.0 9.0 0.14 0.27 0.27 65 1000.5
20260505023203 60 309 4.0 9.0 0.13 0.26 0.26 65 1001.4
20260505023003 61 310 5.0 10.0 0.12 0.25 0.25 65 1001.6
20260505022824 61 310 6.0 11.0 0.11 0.24 0.24 64 1001.7
20260505022603 61 314 6.0 13.0 0.10 0.23 0.23 64 1001.8
20260505022403 61 321 7.0 18.0 0.09 0.22 0.22 64 1001.9
20260505022224 62 322 7.0 18.0 0.08 0.21 0.21 64 1002.0
20260505022003 62 331 7.0 18.0 0.07 0.20 0.20 63 1002.2
20260505021803 63 335 7.0 18.0 0.05 0.18 0.18 62 1002.3
20260505021603 64 336 7.0 18.0 0.05 0.18 0.18 60 1002.3
20260505021403 64 333 6.0 16.0 0.03 0.16 0.16 59 1001.8
20260505021203 64 332 6.0 16.0 0.03 0.16 0.16 57 1001.9
20260505021003 65 325 7.0 16.0 0.01 0.14 0.14 56 1001.7
20260505020803 65 327 7.0 16.0 0.01 0.14 0.14 55 1001.4
20260505020603 66 327 7.0 16.0 0.01 0.14 0.14 54 1001.1
20260505020403 66 327 8.0 16.0 0.01 0.14 0.14 54 1001.1
20260505020203 66 324 9.0 15.0 0.01 0.14 0.14 54 1001.1
20260505020003 66 321 9.0 18.0 0.01 0.14 0.14 53 1001.1
20260505015824 66 319 9.0 18.0 0.01 0.14 0.14 53 1001.1
20260505015603 66 317 8.0 18.0 0.00 0.13 0.13 53 1000.9
20260505015424 67 312 8.0 18.0 0.00 0.13 0.13 53 1000.9
20260505015203 66 312 7.0 18.0 0.00 0.13 0.13 53 1000.9
20260505015003 66 313 6.0 17.0 0.00 0.13 0.13 53 1000.8
20260505014803 65 310 6.0 11.0 0.00 0.13 0.13 56 1000.7
20260505014603 65 309 5.0 11.0 0.00 0.13 0.13 56 1000.7
20260505014424 64 308 4.0 11.0 0.00 0.13 0.13 56 1000.6
20260505014224 64 306 4.0 9.0 0.00 0.13 0.13 58 1000.5
20260505014003 63 304 3.0 7.0 0.00 0.13 0.13 59 1000.5
20260505013803 63 299 2.0 4.0 0.00 0.13 0.13 61 1000.2
20260505013624 63 298 2.0 4.0 0.00 0.13 0.13 61 1000.1
20260505013424 63 298 2.0 4.0 0.01 0.13 0.13 61 1000.1
20260505013203 63 298 1.0 4.0 0.01 0.13 0.13 62 1000.0
20260505013024 63 297 1.0 3.0 0.01 0.13 0.13 62 999.9
20260505012803 63 295 0.0 2.0 0.01 0.13 0.13 63 999.8
20260505012603 63 0 0.0 0.0 0.01 0.13 0.13 63 999.8
20260505012424 63 0 0.0 0.0 0.01 0.13 0.13 63 999.8
20260505012203 62 0 0.0 0.0 0.01 0.13 0.13 63 999.7
20260505012003 63 0 0.0 0.0 0.01 0.13 0.13 64 999.8
20260505011803 63 0 0.0 0.0 0.01 0.13 0.13 64 999.8
20260505011603 63 0 0.0 0.0 0.01 0.13 0.13 64 999.7
20260505011403 63 0 0.0 0.0 0.01 0.13 0.13 64 999.8
20260505011203 63 0 0.0 0.0 0.01 0.13 0.13 64 999.7
20260505011024 63 0 0.0 0.0 0.01 0.13 0.13 64 999.7
20260505010803 64 0 0.0 0.0 0.01 0.13 0.13 64 999.7
20260505010603 64 0 0.0 0.0 0.01 0.13 0.13 64 999.7
20260505010403 64 0 0.0 0.0 0.01 0.13 0.13 63 999.6
20260505010203 64 0 0.0 0.0 0.01 0.13 0.13 63 999.6
20260505010004 65 0 0.0 0.0 0.01 0.13 0.13 63 999.5
20260505005803 65 0 0.0 0.0 0.01 0.13 0.13 63 999.6
20260505005624 65 0 0.0 0.0 0.01 0.13 0.13 62 999.6
20260505005403 65 81 0.0 1.0 0.01 0.13 0.13 61 999.6
20260505005203 66 80 0.0 1.0 0.01 0.13 0.13 61 999.7
20260505005004 66 80 0.0 1.0 0.01 0.13 0.13 61 999.8
20260505004803 66 79 0.0 2.0 0.01 0.13 0.13 61 999.7
20260505004603 66 72 0.0 2.0 0.01 0.13 0.13 59 999.8
20260505004403 67 2 1.0 4.0 0.01 0.13 0.13 59 999.8
20260505004224 67 323 1.0 5.0 0.01 0.13 0.13 59 999.9
20260505004003 67 316 3.0 8.0 0.01 0.13 0.13 57 999.9
20260505003803 67 309 4.0 10.0 0.01 0.13 0.13 56 999.9
20260505003603 67 310 5.0 10.0 0.01 0.13 0.13 56 1000.1
20260505003403 67 311 6.0 10.0 0.00 0.12 0.12 55 1000.3
20260505003203 67 310 6.0 10.0 0.00 0.12 0.12 54 1000.2
20260505003003 67 308 5.0 10.0 0.00 0.12 0.12 54 1000.1
20260505002803 67 309 5.0 10.0 0.00 0.12 0.12 54 1000.1
20260505002603 67 307 5.0 9.0 0.00 0.12 0.12 54 1000.1
20260505002403 66 306 4.0 8.0 0.00 0.12 0.12 55 999.8
20260505002203 66 305 4.0 7.0 0.00 0.12 0.12 56 999.8
20260505002003 66 305 4.0 9.0 0.00 0.12 0.12 57 999.8
20260505001824 66 304 4.0 9.0 0.00 0.12 0.12 56 999.7
20260505001603 67 306 5.0 9.0 0.00 0.12 0.12 56 999.7
20260505001403 67 305 5.0 9.0 0.00 0.12 0.12 56 999.7
20260505001203 67 308 6.0 9.0 0.00 0.12 0.12 55 999.7
20260505001003 68 309 6.0 10.0 0.00 0.12 0.12 55 999.7
20260505000803 68 310 6.0 11.0 0.00 0.12 0.12 53 999.8
20260505000603 68 309 7.0 11.0 0.00 0.12 0.12 54 999.8
20260505000405 68 309 7.0 11.0 0.00 0.12 0.12 53 999.7
20260505000204 68 306 7.0 11.0 0.00 0.12 0.12 53 999.7
20260505000003 68 306 7.0 11.0 0.00 0.12 0.12 53 999.7
20260504235824 68 304 7.0 10.0 0.00 0.12 0.12 55 999.6
20260504235603 68 304 6.0 12.0 0.00 0.12 0.12 54 999.5
20260504235403 68 305 6.0 12.0 0.00 0.12 0.12 53 999.5
20260504235203 68 306 5.0 12.0 0.00 0.12 0.12 54 999.5
20260504235003 68 305 5.0 12.0 0.00 0.12 0.12 52 999.5
20260504234803 68 306 5.0 12.0 0.00 0.12 0.12 52 999.5
20260504234603 68 306 5.0 8.0 0.00 0.12 0.12 53 999.5
20260504234403 68 306 5.0 10.0 0.00 0.12 0.12 53 999.5
20260504234203 68 305 6.0 10.0 0.00 0.12 0.12 53 999.6
20260504234003 68 304 6.0 12.0 0.00 0.12 0.12 54 999.7
20260504233803 68 305 7.0 12.0 0.00 0.12 0.12 53 999.6
20260504233624 68 305 7.0 12.0 0.00 0.12 0.12 53 999.5
20260504233403 68 307 8.0 15.0 0.00 0.12 0.12 52 999.5
20260504233203 68 307 9.0 16.0 0.00 0.12 0.12 53 999.6
20260504233003 69 308 9.0 16.0 0.00 0.12 0.12 52 999.5
20260504232803 69 308 9.0 16.0 0.00 0.12 0.12 53 999.6
20260504232624 69 310 9.0 16.0 0.00 0.12 0.12 51 999.7
20260504232403 69 309 7.0 16.0 0.00 0.12 0.12 49 999.7
20260504232203 69 309 6.0 15.0 0.00 0.12 0.12 51 999.5
20260504232024 69 311 6.0 12.0 0.00 0.12 0.12 51 999.4
20260504231803 70 314 6.0 12.0 0.00 0.12 0.12 51 999.4
20260504231624 69 309 6.0 12.0 0.00 0.12 0.12 49 999.4
20260504231403 69 308 6.0 12.0 0.03 0.12 0.12 49 999.4
20260504231224 69 309 6.0 12.0 0.08 0.12 0.12 49 999.4
20260504231003 69 307 6.0 11.0 0.12 0.12 0.12 49 999.4
20260504230803 70 307 6.0 11.0 0.12 0.12 0.12 49 999.4
20260504230624 70 308 6.0 11.0 0.12 0.12 0.12 49 999.3
20260504230403 70 309 6.0 11.0 0.12 0.12 0.12 47 999.4
20260504230203 70 309 6.0 11.0 0.12 0.12 0.12 48 999.5
20260504230003 70 308 6.0 11.0 0.12 0.12 0.12 48 999.4
20260504225804 70 306 5.0 11.0 0.12 0.12 0.12 48 999.4
20260504225603 69 305 5.0 11.0 0.12 0.12 0.12 50 999.5
20260504225424 69 304 5.0 11.0 0.12 0.12 0.12 51 999.5
20260504225203 68 301 6.0 11.0 0.12 0.12 0.12 51 999.5
20260504225003 68 303 6.0 11.0 0.12 0.12 0.12 54 999.4
20260504224824 68 303 6.0 11.0 0.12 0.12 0.12 52 999.4
20260504224603 68 304 6.0 11.0 0.12 0.12 0.12 54 999.4
20260504224403 68 305 6.0 11.0 0.12 0.12 0.12 53 999.5
20260504224203 67 308 6.0 10.0 0.12 0.12 0.12 54 999.6
20260504224024 67 305 6.0 12.0 0.12 0.12 0.12 54 999.6
20260504223803 67 305 7.0 12.0 0.12 0.12 0.12 55 999.6
20260504223603 67 304 7.0 12.0 0.12 0.12 0.12 56 999.6
20260504223424 67 303 7.0 12.0 0.12 0.12 0.12 54 999.6
20260504223224 67 302 7.0 15.0 0.12 0.12 0.12 54 999.7
20260504223004 67 302 7.0 15.0 0.12 0.12 0.12 56 999.8
20260504222803 67 304 7.0 15.0 0.12 0.12 0.12 56 999.7
20260504222603 67 304 7.0 15.0 0.12 0.12 0.12 57 999.7
20260504222424 67 303 8.0 15.0 0.12 0.12 0.12 55 999.6
20260504222203 67 303 10.0 21.0 0.12 0.12 0.12 57 999.7
20260504222024 67 305 10.0 26.0 0.12 0.12 0.12 56 999.6
20260504221824 67 307 11.0 26.0 0.12 0.12 0.12 57 999.5
20260504221603 68 309 11.0 26.0 0.12 0.12 0.12 58 999.6
20260504221403 69 310 12.0 26.0 0.09 0.09 0.09 54 1000.1
20260504221203 72 311 12.0 26.0 0.04 0.04 0.04 48 1000.2
20260504221003 74 310 11.0 22.0 0.00 0.00 0.00 38 999.6
20260504220803 74 310 11.0 22.0 0.00 0.00 0.00 37 999.2
20260504220603 74 311 11.0 22.0 0.00 0.00 0.00 36 999.2
20260504220424 75 313 10.0 22.0 0.00 0.00 0.00 35 999.1
20260504220224 76 320 9.0 22.0 0.00 0.00 0.00 34 999.1
20260504220003 78 325 7.0 14.0 0.00 0.00 0.00 32 999.1
20260504215803 78 326 7.0 14.0 0.00 0.00 0.00 30 999.0
20260504215624 78 329 7.0 13.0 0.00 0.00 0.00 31 998.9
20260504215403 78 329 7.0 16.0 0.00 0.00 0.00 31 998.9
20260504215203 78 324 8.0 16.0 0.00 0.00 0.00 31 998.7
20260504215003 78 319 8.0 16.0 0.00 0.00 0.00 30 998.9
20260504214803 78 319 8.0 16.0 0.00 0.00 0.00 32 998.8
20260504214603 78 315 8.0 16.0 0.00 0.00 0.00 31 998.8
20260504214403 78 310 8.0 15.0 0.00 0.00 0.00 30 998.8
20260504214203 78 309 8.0 15.0 0.00 0.00 0.00 31 998.9
20260504214003 78 309 8.0 13.0 0.00 0.00 0.00 31 998.9
20260504213803 78 308 8.0 15.0 0.00 0.00 0.00 30 999.1
20260504213603 78 306 9.0 20.0 0.00 0.00 0.00 34 999.1
20260504213403 78 307 8.0 20.0 0.00 0.00 0.00 34 999.1
20260504213203 78 307 8.0 20.0 0.00 0.00 0.00 31 999.1
20260504213024 78 309 8.0 20.0 0.00 0.00 0.00 32 999.2
20260504212803 78 309 7.0 20.0 0.00 0.00 0.00 32 999.1
20260504212624 77 313 6.0 20.0 0.00 0.00 0.00 32 999.1
20260504212403 77 315 6.0 12.0 0.00 0.00 0.00 35 999.2
20260504212203 76 312 7.0 12.0 0.00 0.00 0.00 34 999.3
20260504212003 76 311 7.0 12.0 0.00 0.00 0.00 35 999.3
20260504211803 76 313 7.0 13.0 0.00 0.00 0.00 34 999.4
20260504211624 76 309 8.0 15.0 0.00 0.00 0.00 33 999.4
20260504211403 75 308 7.0 15.0 0.00 0.00 0.00 35 999.5
20260504211203 75 308 7.0 15.0 0.00 0.00 0.00 36 999.5
20260504211003 75 308 7.0 15.0 0.00 0.00 0.00 35 999.5
20260504210803 75 305 6.0 15.0 0.00 0.00 0.00 36 999.5
20260504210603 75 306 6.0 12.0 0.00 0.00 0.00 39 999.6
20260504210424 75 304 7.0 11.0 0.00 0.00 0.00 39 999.7
20260504210203 75 303 8.0 15.0 0.00 0.00 0.00 38 999.7
20260504210003 75 303 9.0 16.0 0.00 0.00 0.00 38 999.8
20260504205803 75 305 10.0 18.0 0.00 0.00 0.00 38 999.7
20260504205603 76 304 10.0 18.0 0.00 0.00 0.00 36 999.8
20260504205403 76 306 11.0 18.0 0.00 0.00 0.00 35 999.7
20260504205203 77 307 11.0 18.0 0.00 0.00 0.00 35 999.8
20260504205024 76 306 11.0 18.0 0.00 0.00 0.00 35 1000.0
20260504204803 76 308 10.0 17.0 0.00 0.00 0.00 34 999.9
20260504204603 76 310 10.0 17.0 0.00 0.00 0.00 34 999.9
20260504204424 77 310 9.0 17.0 0.00 0.00 0.00 33 999.9
20260504204224 77 308 9.0 18.0 0.00 0.00 0.00 33 999.9
20260504204003 77 310 10.0 18.0 0.00 0.00 0.00 35 999.9
20260504203803 77 305 10.0 18.0 0.00 0.00 0.00 37 999.9
20260504203624 76 305 10.0 18.0 0.00 0.00 0.00 37 999.9
20260504203403 76 304 12.0 22.0 0.00 0.00 0.00 38 1000.0
20260504203203 76 305 12.0 22.0 0.00 0.00 0.00 36 1000.1
20260504203003 76 304 12.0 22.0 0.00 0.00 0.00 38 1000.1
20260504202803 76 304 11.0 22.0 0.00 0.00 0.00 35 1000.1
20260504202603 76 306 11.0 22.0 0.00 0.00 0.00 36 1000.1
20260504202403 76 306 11.0 20.0 0.00 0.00 0.00 36 1000.1
20260504202203 76 306 10.0 20.0 0.00 0.00 0.00 38 1000.1
20260504202003 75 307 9.0 20.0 0.00 0.00 0.00 38 1000.1
20260504201803 75 308 9.0 20.0 0.00 0.00 0.00 38 1000.2
20260504201603 74 307 9.0 16.0 0.00 0.00 0.00 40 1000.2
20260504201403 74 307 9.0 15.0 0.00 0.00 0.00 41 1000.3
20260504201203 75 306 9.0 15.0 0.00 0.00 0.00 37 1000.3
20260504201003 75 304 10.0 15.0 0.00 0.00 0.00 37 1000.3
20260504200803 76 305 10.0 16.0 0.00 0.00 0.00 36 1000.4
20260504200624 77 306 10.0 16.0 0.00 0.00 0.00 37 1000.4
20260504200403 77 304 10.0 20.0 0.00 0.00 0.00 38 1000.4
20260504200203 76 305 11.0 20.0 0.00 0.00 0.00 36 1000.4
20260504200003 76 309 11.0 20.0 0.00 0.00 0.00 41 1000.5
20260504195803 76 309 12.0 20.0 0.00 0.00 0.00 38 1000.5
20260504195624 76 307 12.0 20.0 0.00 0.00 0.00 38 1000.4
20260504195403 76 306 12.0 22.0 0.00 0.00 0.00 39 1000.4
20260504195203 75 304 12.0 22.0 0.00 0.00 0.00 38 1000.4
20260504195003 76 300 12.0 22.0 0.00 0.00 0.00 38 1000.5
20260504194824 76 298 12.0 22.0 0.00 0.00 0.00 37 1000.6
20260504194603 76 298 11.0 22.0 0.00 0.00 0.00 35 1000.6
20260504194403 76 299 11.0 18.0 0.00 0.00 0.00 36 1000.6
20260504194203 76 302 11.0 20.0 0.00 0.00 0.00 35 1000.7
20260504194003 75 304 11.0 20.0 0.00 0.00 0.00 37 1000.8
20260504193803 75 307 12.0 20.0 0.00 0.00 0.00 36 1000.8
20260504193603 75 308 12.0 20.0 0.00 0.00 0.00 36 1000.8
20260504193424 76 306 12.0 20.0 0.00 0.00 0.00 36 1000.8
20260504193203 76 305 11.0 19.0 0.00 0.00 0.00 37 1000.8
20260504193024 75 304 11.0 19.0 0.00 0.00 0.00 36 1000.9
20260504192824 76 303 11.0 19.0 0.00 0.00 0.00 36 1000.9
20260504192603 76 301 11.0 19.0 0.00 0.00 0.00 34 1000.9
20260504192403 76 303 10.0 17.0 0.00 0.00 0.00 39 1000.9
20260504192224 76 304 11.0 17.0 0.00 0.00 0.00 36 1000.9
20260504192003 76 304 10.0 17.0 0.00 0.00 0.00 35 1001.0
20260504191803 76 304 9.0 15.0 0.00 0.00 0.00 39 1001.0
20260504191603 75 305 9.0 15.0 0.00 0.00 0.00 40 1001.0
20260504191403 75 304 9.0 15.0 0.00 0.00 0.00 40 1001.0
20260504191224 75 304 9.0 15.0 0.00 0.00 0.00 38 1001.1
20260504191003 75 305 9.0 17.0 0.00 0.00 0.00 38 1001.1
20260504190803 75 305 10.0 18.0 0.00 0.00 0.00 35 1001.2
20260504190603 75 304 11.0 18.0 0.00 0.00 0.00 36 1001.2
20260504190403 74 305 11.0 20.0 0.00 0.00 0.00 38 1001.2
20260504190203 74 305 11.0 20.0 0.00 0.00 0.00 34 1001.3
20260504190003 74 302 11.0 20.0 0.00 0.00 0.00 36 1001.2
20260504185803 74 302 11.0 20.0 0.00 0.00 0.00 35 1001.3
20260504185603 74 303 10.0 20.0 0.00 0.00 0.00 35 1001.3
20260504185403 75 303 9.0 18.0 0.00 0.00 0.00 35 1001.2
20260504185203 76 302 9.0 18.0 0.00 0.00 0.00 35 1001.2
20260504185003 76 303 9.0 16.0 0.00 0.00 0.00 34 1001.2
20260504184803 76 302 9.0 16.0 0.00 0.00 0.00 35 1001.3
20260504184603 75 303 9.0 15.0 0.00 0.00 0.00 37 1001.3
20260504184424 75 304 9.0 19.0 0.00 0.00 0.00 37 1001.3
20260504184224 74 304 10.0 19.0 0.00 0.00 0.00 33 1001.3
20260504184024 75 305 9.0 19.0 0.00 0.00 0.00 34 1001.3
20260504183803 74 306 10.0 19.0 0.00 0.00 0.00 36 1001.3
20260504183603 74 307 10.0 19.0 0.00 0.00 0.00 31 1001.3
20260504183403 74 305 10.0 17.0 0.00 0.00 0.00 32 1001.3
20260504183203 75 304 10.0 18.0 0.00 0.00 0.00 33 1001.3
20260504183003 74 306 10.0 19.0 0.00 0.00 0.00 33 1001.4
20260504182803 74 305 9.0 19.0 0.00 0.00 0.00 32 1001.4
20260504182603 74 303 10.0 19.0 0.00 0.00 0.00 32 1001.4
20260504182424 74 303 10.0 19.0 0.00 0.00 0.00 31 1001.5
20260504182203 74 303 10.0 19.0 0.00 0.00 0.00 32 1001.5
20260504182024 74 303 10.0 17.0 0.00 0.00 0.00 32 1001.5
20260504181803 74 302 11.0 17.0 0.00 0.00 0.00 31 1001.5
20260504181603 74 303 10.0 17.0 0.00 0.00 0.00 31 1001.5
20260504181424 74 301 10.0 17.0 0.00 0.00 0.00 32 1001.5
20260504181203 75 300 9.0 17.0 0.00 0.00 0.00 30 1001.6
20260504181003 75 299 9.0 17.0 0.00 0.00 0.00 31 1001.5
20260504180803 75 298 9.0 17.0 0.00 0.00 0.00 29 1001.4
20260504180603 75 299 9.0 16.0 0.00 0.00 0.00 30 1001.5
20260504180403 74 300 10.0 16.0 0.00 0.00 0.00 29 1001.4
20260504180203 74 299 10.0 18.0 0.00 0.00 0.00 33 1001.5
20260504180003 74 301 11.0 18.0 0.00 0.00 0.00 31 1001.6
20260504175803 74 303 10.0 18.0 0.00 0.00 0.00 28 1001.5
20260504175603 74 302 10.0 18.0 0.00 0.00 0.00 30 1001.6
20260504175403 74 303 10.0 18.0 0.00 0.00 0.00 30 1001.5
20260504175203 74 305 10.0 17.0 0.00 0.00 0.00 31 1001.6
20260504175003 74 304 10.0 17.0 0.00 0.00 0.00 28 1001.6
20260504174803 74 303 10.0 18.0 0.00 0.00 0.00 32 1001.6
20260504174603 74 304 11.0 18.0 0.00 0.00 0.00 29 1001.7
20260504174403 74 304 11.0 19.0 0.00 0.00 0.00 32 1001.8
20260504174203 73 305 10.0 19.0 0.00 0.00 0.00 28 1001.9
20260504174024 73 305 10.0 19.0 0.00 0.00 0.00 30 1001.9
20260504173803 73 304 10.0 19.0 0.00 0.00 0.00 29 1001.9
20260504173603 73 305 10.0 19.0 0.00 0.00 0.00 30 1001.9
20260504173403 73 306 10.0 19.0 0.00 0.00 0.00 31 1002.0
20260504173203 73 306 10.0 19.0 0.00 0.00 0.00 30 1002.0
20260504173003 73 305 10.0 19.0 0.00 0.00 0.00 29 1002.1
20260504172803 73 304 10.0 19.0 0.00 0.00 0.00 31 1002.2
20260504172603 73 302 10.0 17.0 0.00 0.00 0.00 28 1002.2
20260504172403 73 303 10.0 15.0 0.00 0.00 0.00 31 1002.1
20260504172203 73 303 10.0 15.0 0.00 0.00 0.00 29 1002.2
20260504172003 73 304 10.0 15.0 0.00 0.00 0.00 30 1002.1
20260504171803 73 305 10.0 15.0 0.00 0.00 0.00 31 1002.2
20260504171603 73 306 10.0 15.0 0.00 0.00 0.00 34 1002.3
20260504171403 73 303 9.0 15.0 0.00 0.00 0.00 32 1002.3
20260504171203 73 303 8.0 15.0 0.00 0.00 0.00 29 1002.3
20260504171003 73 304 8.0 14.0 0.00 0.00 0.00 33 1002.4
20260504170804 73 305 8.0 14.0 0.00 0.00 0.00 32 1002.4
20260504170603 72 305 8.0 14.0 0.00 0.00 0.00 35 1002.4
20260504170403 72 305 9.0 14.0 0.00 0.00 0.00 34 1002.5
20260504170203 72 306 9.0 14.0 0.00 0.00 0.00 32 1002.5
20260504160403 69 309 7.0 12.0 0.00 0.00 0.00 38 1003.4
20260504160203 69 307 7.0 12.0 0.00 0.00 0.00 39 1003.4
20260504151003 65 299 7.0 10.0 0.00 0.00 0.00 49 1004.0
20260504150824 64 299 7.0 10.0 0.00 0.00 0.00 47 1004.1
20260504150624 64 301 7.0 10.0 0.00 0.00 0.00 47 1004.1
20260504150424 64 301 7.0 10.0 0.00 0.00 0.00 48 1004.1
20260504150203 64 300 6.0 12.0 0.00 0.00 0.00 47 1004.1
20260504141203 61 305 6.0 10.0 0.00 0.00 0.00 52 1004.3
20260504141003 60 305 6.0 10.0 0.00 0.00 0.00 51 1004.3
20260504140803 60 306 6.0 10.0 0.00 0.00 0.00 52 1004.3
20260504140603 60 306 6.0 10.0 0.00 0.00 0.00 53 1004.3
20260504140403 60 307 6.0 10.0 0.00 0.00 0.00 53 1004.3
20260504140203 60 307 6.0 10.0 0.00 0.00 0.00 54 1004.3
20260504130803 55 298 5.0 8.0 0.00 0.00 0.00 57 1004.7
20260504130603 55 298 5.0 8.0 0.00 0.00 0.00 57 1004.7
20260504130403 55 299 5.0 9.0 0.00 0.00 0.00 57 1004.8
20260504130224 55 299 5.0 9.0 0.00 0.00 0.00 58 1004.8
20260504120306 51 302 6.0 11.0 0.00 0.00 0.00 61 1005.1
20260504110624 48 295 2.0 6.0 0.00 0.00 0.00 63 1004.7
20260504110403 48 294 2.0 6.0 0.00 0.00 0.00 63 1004.6
20260504110203 48 294 2.0 6.0 0.00 0.00 0.00 63 1004.6
20260504100603 48 298 2.0 5.0 0.00 0.00 0.00 63 1004.5
20260504100403 48 296 2.0 5.0 0.00 0.00 0.00 63 1004.5
20260504100203 48 296 2.0 5.0 0.00 0.00 0.00 63 1004.5
20260504081824 46 0 0.0 0.0 0.00 0.00 0.00 63 1005.0
20260504081603 46 0 0.0 0.0 0.00 0.00 0.00 63 1005.1
20260504081424 46 0 0.0 0.0 0.00 0.00 0.00 64 1005.1
20260504081203 46 0 0.0 0.0 0.00 0.00 0.00 64 1005.1
20260504081003 46 0 0.0 0.0 0.00 0.00 0.00 64 1005.1
20260504080803 46 0 0.0 0.0 0.00 0.00 0.00 64 1005.1
20260504080624 46 0 0.0 0.0 0.00 0.00 0.00 64 1005.1
20260504080403 46 0 0.0 0.0 0.00 0.00 0.00 64 1005.1
20260504080224 46 0 0.0 0.0 0.00 0.00 0.00 64 1005.1
20260504070403 46 0 0.0 0.0 0.00 0.00 0.00 65 1005.8
20260504070203 46 0 0.0 0.0 0.00 0.00 0.00 64 1005.8
20260504060203 48 309 1.0 2.0 0.00 0.00 0.00 63 1006.7